Time,TemperatureF,DewpointF,PressureIn,WindDirection,WindDirectionDegrees,WindSpeedMPH,WindSpeedGustMPH,Humidity,HourlyPrecipIn,Conditions,Clouds,dailyrainin,SoftwareType,DateUTC
2013-05-17 00:01:00,63.9,60.9,29.99,ESE,108,0.0,0.0,90,0.00,,,0.00,VWS V14.01,2013-05-17 04:01:00,
2013-05-17 00:06:00,63.7,60.7,29.99,ESE,108,0.0,0.0,90,0.00,,,0.00,VWS V14.01,2013-05-17 04:06:00,
2013-05-17 00:12:00,63.7,61.0,29.99,ESE,108,0.0,0.0,91,0.00,,,0.00,VWS V14.01,2013-05-17 04:12:00,
2013-05-17 00:17:00,63.6,60.9,29.99,ESE,108,0.0,0.0,91,0.00,,,0.00,VWS V14.01,2013-05-17 04:17:00,
2013-05-17 00:22:00,63.4,60.7,29.99,ESE,108,0.0,0.0,91,0.00,,,0.00,VWS V14.01,2013-05-17 04:22:00,
2013-05-17 00:27:00,63.2,60.5,29.99,ESE,108,0.0,0.0,91,0.00,,,0.00,VWS V14.01,2013-05-17 04:27:00,
2013-05-17 00:32:00,63.3,60.6,29.99,ESE,108,0.0,0.0,91,0.00,,,0.00,VWS V14.01,2013-05-17 04:32:00,
2013-05-17 00:37:00,63.3,60.9,30.00,ESE,108,0.0,0.0,92,0.00,,,0.00,VWS V14.01,2013-05-17 04:37:00,
2013-05-17 00:42:00,63.3,60.9,30.00,ESE,108,1.0,1.0,92,0.00,,,0.00,VWS V14.01,2013-05-17 04:42:00,
2013-05-17 00:47:00,63.2,60.8,30.00,ESE,108,0.0,1.0,92,0.00,,,0.00,VWS V14.01,2013-05-17 04:47:00,
2013-05-17 00:52:00,63.3,61.2,30.00,ESE,108,0.0,0.0,93,0.00,,CLR,0.00,VWS V14.01,2013-05-17 04:52:00,
2013-05-17 00:57:00,63.2,60.8,30.00,ESE,108,0.0,0.0,92,0.00,,CLR,0.00,VWS V14.01,2013-05-17 04:57:00,
2013-05-17 01:02:00,62.9,60.5,30.00,ESE,108,0.0,0.0,92,0.00,,CLR,0.00,VWS V14.01,2013-05-17 05:02:00,
2013-05-17 01:07:00,62.7,60.3,30.00,ESE,108,0.0,0.0,92,0.00,,CLR,0.00,VWS V14.01,2013-05-17 05:07:00,
2013-05-17 01:12:00,62.5,60.2,30.00,ESE,108,0.0,1.0,92,0.00,,CLR,0.00,VWS V14.01,2013-05-17 05:12:00,
2013-05-17 01:17:00,62.6,60.5,30.00,ESE,108,0.0,1.0,93,0.00,,CLR,0.00,VWS V14.01,2013-05-17 05:17:00,
2013-05-17 01:22:00,62.5,60.5,30.00,ESE,108,0.0,0.0,93,0.00,,CLR,0.00,VWS V14.01,2013-05-17 05:22:00,
2013-05-17 01:27:00,62.3,60.2,30.00,ESE,108,0.0,0.0,93,0.00,,CLR,0.00,VWS V14.01,2013-05-17 05:27:00,
2013-05-17 01:32:00,62.1,60.1,30.00,ESE,108,0.0,0.0,93,0.00,,CLR,0.00,VWS V14.01,2013-05-17 05:32:00,
2013-05-17 01:37:00,61.8,59.8,30.00,ESE,108,0.0,0.0,93,0.00,,CLR,0.00,VWS V14.01,2013-05-17 05:37:00,
2013-05-17 01:42:00,61.7,59.7,30.00,ESE,108,0.0,0.0,93,0.00,,CLR,0.00,VWS V14.01,2013-05-17 05:42:00,
2013-05-17 01:47:00,61.7,59.7,30.00,ESE,108,0.0,0.0,93,0.00,,CLR,0.00,VWS V14.01,2013-05-17 05:47:00,
2013-05-17 01:52:00,61.6,59.6,30.00,ESE,108,0.0,0.0,93,0.00,,,0.00,VWS V14.01,2013-05-17 05:52:00,
2013-05-17 01:57:00,61.5,59.8,30.00,ESE,108,0.0,0.0,94,0.00,,,0.00,VWS V14.01,2013-05-17 05:57:00,
2013-05-17 02:02:00,61.4,59.7,30.00,ESE,108,0.0,0.0,94,0.00,,,0.00,VWS V14.01,2013-05-17 06:02:00,
2013-05-17 02:07:00,61.2,59.5,30.00,ESE,108,0.0,0.0,94,0.00,,,0.00,VWS V14.01,2013-05-17 06:07:00,
2013-05-17 02:12:00,61.0,59.0,30.00,ESE,108,0.0,0.0,93,0.00,,,0.00,VWS V14.01,2013-05-17 06:12:00,
2013-05-17 02:17:00,60.8,59.1,30.00,ESE,108,0.0,0.0,94,0.00,,,0.00,VWS V14.01,2013-05-17 06:17:00,
2013-05-17 02:22:00,60.7,59.0,30.00,ESE,108,0.0,0.0,94,0.00,,,0.00,VWS V14.01,2013-05-17 06:22:00,
2013-05-17 02:27:00,60.6,58.9,30.00,ESE,108,0.0,0.0,94,0.00,,,0.00,VWS V14.01,2013-05-17 06:27:00,
2013-05-17 02:32:00,60.5,58.8,30.00,ESE,108,0.0,0.0,94,0.00,,,0.00,VWS V14.01,2013-05-17 06:32:00,
2013-05-17 02:37:00,60.6,58.9,30.00,ESE,108,0.0,0.0,94,0.00,,,0.00,VWS V14.01,2013-05-17 06:37:00,
2013-05-17 02:42:00,60.6,59.2,30.00,ESE,108,0.0,0.0,95,0.00,,,0.00,VWS V14.01,2013-05-17 06:42:00,
2013-05-17 02:47:00,60.6,59.2,30.00,ESE,108,0.0,0.0,95,0.00,,,0.00,VWS V14.01,2013-05-17 06:47:00,
2013-05-17 02:52:00,60.6,59.2,30.00,ESE,108,0.0,0.0,95,0.00,,,0.00,VWS V14.01,2013-05-17 06:52:00,
2013-05-17 02:57:00,60.6,59.2,30.00,ESE,108,0.0,1.0,95,0.00,,,0.00,VWS V14.01,2013-05-17 06:57:00,
2013-05-17 03:02:00,60.7,59.3,30.00,ESE,108,0.0,1.0,95,0.00,,,0.00,VWS V14.01,2013-05-17 07:02:00,
2013-05-17 03:07:00,60.7,59.3,30.00,ESE,108,0.0,1.0,95,0.00,,,0.00,VWS V14.01,2013-05-17 07:07:00,
2013-05-17 03:12:00,60.7,59.3,30.00,ESE,108,0.0,0.0,95,0.00,,,0.00,VWS V14.01,2013-05-17 07:12:00,
2013-05-17 03:17:00,60.8,59.7,30.00,ESE,108,0.0,0.0,96,0.00,,,0.00,VWS V14.01,2013-05-17 07:17:00,
2013-05-17 03:22:00,60.9,59.8,30.00,ESE,108,0.0,0.0,96,0.00,,,0.00,VWS V14.01,2013-05-17 07:22:00,
2013-05-17 03:27:00,60.9,59.8,30.00,ESE,108,0.0,1.0,96,0.00,,,0.00,VWS V14.01,2013-05-17 07:27:00,
2013-05-17 03:32:00,60.9,59.8,30.01,ESE,108,0.0,0.0,96,0.00,,,0.00,VWS V14.01,2013-05-17 07:32:00,
2013-05-17 03:37:00,60.8,59.7,30.01,ESE,108,0.0,0.0,96,0.00,,,0.00,VWS V14.01,2013-05-17 07:37:00,
2013-05-17 03:42:00,60.8,59.7,30.00,ESE,108,0.0,0.0,96,0.00,,,0.00,VWS V14.01,2013-05-17 07:42:00,
2013-05-17 03:47:00,60.7,59.6,30.00,ESE,108,0.0,0.0,96,0.00,,,0.00,VWS V14.01,2013-05-17 07:47:00,
2013-05-17 03:52:00,60.6,59.5,30.00,ESE,108,0.0,0.0,96,0.00,,,0.00,VWS V14.01,2013-05-17 07:52:00,
2013-05-17 03:57:00,60.5,59.4,30.00,ESE,108,0.0,0.0,96,0.00,,,0.00,VWS V14.01,2013-05-17 07:57:00,
2013-05-17 04:02:00,60.4,59.3,30.00,ESE,108,0.0,0.0,96,0.00,,,0.00,VWS V14.01,2013-05-17 08:02:00,
2013-05-17 04:07:00,60.3,59.2,30.01,ESE,108,0.0,0.0,96,0.00,,,0.00,VWS V14.01,2013-05-17 08:07:00,
2013-05-17 04:12:00,60.2,59.1,30.00,ESE,108,0.0,0.0,96,0.00,,,0.00,VWS V14.01,2013-05-17 08:12:00,
2013-05-17 04:17:00,60.2,59.1,30.00,ESE,108,0.0,0.0,96,0.00,,,0.00,VWS V14.01,2013-05-17 08:17:00,
2013-05-17 04:22:00,60.2,59.1,30.00,ESE,108,0.0,0.0,96,0.00,,,0.00,VWS V14.01,2013-05-17 08:22:00,
2013-05-17 04:27:00,60.1,59.0,30.01,ESE,108,0.0,0.0,96,0.00,,,0.00,VWS V14.01,2013-05-17 08:27:00,
2013-05-17 04:32:00,60.1,59.0,30.01,ESE,108,0.0,0.0,96,0.00,,,0.00,VWS V14.01,2013-05-17 08:32:00,
2013-05-17 04:37:00,60.1,59.0,30.01,ESE,108,0.0,1.0,96,0.00,,,0.00,VWS V14.01,2013-05-17 08:37:00,
2013-05-17 04:42:00,60.1,59.0,30.01,ESE,108,0.0,0.0,96,0.00,,,0.00,VWS V14.01,2013-05-17 08:42:00,
2013-05-17 04:47:00,60.2,59.3,30.01,ESE,108,0.0,1.0,97,0.00,,,0.00,VWS V14.01,2013-05-17 08:47:00,
2013-05-17 04:52:00,60.2,59.3,30.02,ESE,108,0.0,0.0,97,0.00,,,0.00,VWS V14.01,2013-05-17 08:52:00,
2013-05-17 04:57:00,60.2,59.3,30.01,ESE,108,0.0,0.0,97,0.00,,,0.00,VWS V14.01,2013-05-17 08:57:00,
2013-05-17 05:02:00,60.2,59.3,30.02,ESE,108,0.0,0.0,97,0.00,,,0.00,VWS V14.01,2013-05-17 09:02:00,
2013-05-17 05:07:00,60.2,59.3,30.02,ESE,108,0.0,1.0,97,0.00,,,0.00,VWS V14.01,2013-05-17 09:07:00,
2013-05-17 05:12:00,60.2,59.3,30.02,ESE,108,0.0,0.0,97,0.00,,,0.00,VWS V14.01,2013-05-17 09:12:00,
2013-05-17 05:17:00,60.3,59.5,30.02,ESE,108,0.0,0.0,97,0.00,,,0.00,VWS V14.01,2013-05-17 09:17:00,
2013-05-17 05:22:00,60.3,59.5,30.02,ESE,108,0.0,0.0,97,0.00,,,0.00,VWS V14.01,2013-05-17 09:22:00,
2013-05-17 05:27:00,60.4,59.5,30.02,ESE,108,0.0,0.0,97,0.00,,,0.00,VWS V14.01,2013-05-17 09:27:00,
2013-05-17 05:32:00,60.4,59.5,30.03,ESE,108,0.0,0.0,97,0.00,,,0.00,VWS V14.01,2013-05-17 09:32:00,
2013-05-17 05:37:00,60.4,59.5,30.03,ESE,108,0.0,0.0,97,0.00,,,0.00,VWS V14.01,2013-05-17 09:37:00,
2013-05-17 05:42:00,60.5,59.7,30.03,ESE,108,0.0,1.0,97,0.00,,,0.00,VWS V14.01,2013-05-17 09:42:00,
2013-05-17 05:47:00,60.5,59.7,30.04,ESE,108,0.0,1.0,97,0.00,,,0.00,VWS V14.01,2013-05-17 09:47:00,
2013-05-17 05:52:00,60.5,59.7,30.04,ESE,108,0.0,0.0,97,0.00,,,0.00,VWS V14.01,2013-05-17 09:52:00,
2013-05-17 05:57:00,60.6,59.8,30.04,ESE,108,0.0,1.0,97,0.00,,,0.00,VWS V14.01,2013-05-17 09:57:00,
2013-05-17 06:02:00,60.6,59.8,30.04,ESE,108,0.0,0.0,97,0.00,,,0.00,VWS V14.01,2013-05-17 10:02:00,
2013-05-17 06:07:00,60.7,59.8,30.04,ESE,108,0.0,0.0,97,0.00,,,0.00,VWS V14.01,2013-05-17 10:07:00,
2013-05-17 06:12:00,60.7,59.8,30.04,ESE,108,0.0,0.0,97,0.00,,,0.00,VWS V14.01,2013-05-17 10:12:00,
2013-05-17 06:17:00,60.7,59.8,30.05,ESE,108,0.0,0.0,97,0.00,,,0.00,VWS V14.01,2013-05-17 10:17:00,
2013-05-17 06:22:00,60.6,59.8,30.05,ESE,108,0.0,0.0,97,0.00,,,0.00,VWS V14.01,2013-05-17 10:22:00,
2013-05-17 06:28:00,60.6,59.8,30.05,ESE,108,0.0,1.0,97,0.00,,,0.00,VWS V14.01,2013-05-17 10:28:00,
2013-05-17 06:33:00,60.6,59.8,30.05,ESE,108,0.0,0.0,97,0.00,,,0.00,VWS V14.01,2013-05-17 10:33:00,
2013-05-17 06:38:00,60.6,59.8,30.05,ESE,108,0.0,0.0,97,0.00,,,0.00,VWS V14.01,2013-05-17 10:38:00,
2013-05-17 06:43:00,60.5,59.7,30.06,ESE,108,0.0,1.0,97,0.00,,,0.00,VWS V14.01,2013-05-17 10:43:00,
2013-05-17 06:48:00,60.6,59.8,30.06,ESE,108,0.0,1.0,97,0.00,,,0.00,VWS V14.01,2013-05-17 10:48:00,
2013-05-17 06:53:00,60.6,59.8,30.06,ESE,108,0.0,0.0,97,0.00,,,0.00,VWS V14.01,2013-05-17 10:53:00,
2013-05-17 06:58:00,60.5,59.7,30.06,ESE,108,0.0,0.0,97,0.00,,,0.00,VWS V14.01,2013-05-17 10:58:00,
2013-05-17 07:03:00,60.6,59.8,30.06,ESE,108,0.0,0.0,97,0.00,,,0.00,VWS V14.01,2013-05-17 11:03:00,
2013-05-17 07:08:00,60.6,59.8,30.06,ESE,108,0.0,0.0,97,0.01,,,0.01,VWS V14.01,2013-05-17 11:08:00,
2013-05-17 07:13:00,60.7,59.8,30.06,ESE,108,0.0,0.0,97,0.01,,,0.01,VWS V14.01,2013-05-17 11:13:00,
2013-05-17 07:18:00,60.7,59.8,30.06,ESE,108,0.0,0.0,97,0.01,,,0.01,VWS V14.01,2013-05-17 11:18:00,
2013-05-17 07:23:00,60.8,60.2,30.06,ESE,108,0.0,0.0,98,0.01,,,0.01,VWS V14.01,2013-05-17 11:23:00,
2013-05-17 07:28:00,60.8,60.2,30.06,ESE,108,0.0,0.0,98,0.01,,,0.01,VWS V14.01,2013-05-17 11:28:00,
2013-05-17 07:33:00,60.8,60.2,30.07,ESE,108,0.0,1.0,98,0.01,,,0.01,VWS V14.01,2013-05-17 11:33:00,
2013-05-17 07:38:00,60.9,60.3,30.07,ESE,108,0.0,1.0,98,0.01,,,0.01,VWS V14.01,2013-05-17 11:38:00,
2013-05-17 07:43:00,61.0,60.4,30.07,ESE,108,0.0,0.0,98,0.01,,,0.01,VWS V14.01,2013-05-17 11:43:00,
2013-05-17 07:48:00,61.1,60.5,30.07,ESE,108,0.0,0.0,98,0.01,,,0.01,VWS V14.01,2013-05-17 11:48:00,
2013-05-17 07:53:00,61.2,60.6,30.07,ESE,108,0.0,1.0,98,0.01,,,0.01,VWS V14.01,2013-05-17 11:53:00,
2013-05-17 07:58:00,61.3,60.7,30.07,ESE,108,0.0,1.0,98,0.01,,,0.01,VWS V14.01,2013-05-17 11:58:00,
2013-05-17 08:03:00,61.3,60.7,30.07,ESE,108,0.0,2.0,98,0.01,,,0.01,VWS V14.01,2013-05-17 12:03:00,
2013-05-17 08:08:00,61.4,60.8,30.07,ESE,108,0.0,2.0,98,0.01,,,0.01,VWS V14.01,2013-05-17 12:08:00,
2013-05-17 08:13:00,61.4,60.8,30.07,ESE,108,0.0,0.0,98,0.00,,,0.01,VWS V14.01,2013-05-17 12:13:00,
2013-05-17 08:18:00,61.5,60.9,30.07,ESE,108,0.0,1.0,98,0.00,,,0.01,VWS V14.01,2013-05-17 12:18:00,
2013-05-17 08:23:00,61.6,61.0,30.07,ESE,108,1.0,1.0,98,0.00,,,0.01,VWS V14.01,2013-05-17 12:23:00,
2013-05-17 08:28:00,61.6,61.0,30.07,ESE,108,0.0,4.0,98,0.00,,,0.01,VWS V14.01,2013-05-17 12:28:00,
2013-05-17 08:33:00,61.8,61.2,30.07,ESE,108,0.0,3.0,98,0.00,,,0.01,VWS V14.01,2013-05-17 12:33:00,
2013-05-17 08:38:00,61.9,61.3,30.08,ESE,108,0.0,4.0,98,0.00,,,0.01,VWS V14.01,2013-05-17 12:38:00,
2013-05-17 08:43:00,62.0,61.4,30.08,ESE,108,0.0,2.0,98,0.00,,,0.01,VWS V14.01,2013-05-17 12:43:00,
2013-05-17 08:48:00,62.1,61.5,30.08,South,169,0.0,4.0,98,0.00,,,0.01,VWS V14.01,2013-05-17 12:48:00,
2013-05-17 08:53:00,62.1,61.5,30.08,South,173,0.0,1.0,98,0.00,,,0.01,VWS V14.01,2013-05-17 12:53:00,
2013-05-17 08:58:00,62.2,61.6,30.08,South,173,0.0,1.0,98,0.00,,,0.01,VWS V14.01,2013-05-17 12:58:00,
2013-05-17 09:03:00,62.3,61.7,30.08,SE,125,0.0,2.0,98,0.00,,,0.01,VWS V14.01,2013-05-17 13:03:00,
2013-05-17 09:08:00,62.3,61.7,30.08,SE,125,0.0,2.0,98,0.00,,,0.01,VWS V14.01,2013-05-17 13:08:00,
2013-05-17 09:13:00,62.4,61.8,30.08,ESE,121,3.0,4.0,98,0.00,,,0.01,VWS V14.01,2013-05-17 13:13:00,
2013-05-17 09:18:00,62.4,61.8,30.08,East,84,2.0,4.0,98,0.00,,,0.01,VWS V14.01,2013-05-17 13:18:00,
2013-05-17 09:23:00,62.5,61.9,30.08,ESE,110,2.0,3.0,98,0.00,,,0.01,VWS V14.01,2013-05-17 13:23:00,
2013-05-17 09:28:00,62.5,61.9,30.08,ESE,113,0.0,4.0,98,0.00,,,0.01,VWS V14.01,2013-05-17 13:28:00,
2013-05-17 09:33:00,62.6,62.0,30.08,ESE,113,0.0,1.0,98,0.00,,,0.01,VWS V14.01,2013-05-17 13:33:00,
2013-05-17 09:38:00,62.8,62.2,30.08,South,186,0.0,3.0,98,0.00,,,0.01,VWS V14.01,2013-05-17 13:38:00,
2013-05-17 09:43:00,62.9,62.3,30.08,South,182,0.0,3.0,98,0.00,,,0.01,VWS V14.01,2013-05-17 13:43:00,
2013-05-17 09:48:00,62.8,62.2,30.08,SSE,164,0.0,5.0,98,0.00,,,0.01,VWS V14.01,2013-05-17 13:48:00,
2013-05-17 09:53:00,62.8,62.2,30.09,SSE,164,0.0,3.0,98,0.00,,,0.01,VWS V14.01,2013-05-17 13:53:00,
2013-05-17 09:58:00,62.9,62.3,30.09,ESE,109,2.0,3.0,98,0.00,,,0.01,VWS V14.01,2013-05-17 13:58:00,
2013-05-17 10:03:00,62.9,62.3,30.09,South,189,0.0,3.0,98,0.00,,,0.01,VWS V14.01,2013-05-17 14:03:00,
2013-05-17 10:08:00,62.9,62.3,30.09,SE,140,0.0,3.0,98,0.00,,,0.01,VWS V14.01,2013-05-17 14:08:00,
2013-05-17 10:13:00,63.1,62.5,30.08,ESE,121,0.0,1.0,98,0.00,,,0.01,VWS V14.01,2013-05-17 14:13:00,
2013-05-17 10:18:00,63.4,62.8,30.09,ESE,105,5.0,5.0,98,0.00,,,0.01,VWS V14.01,2013-05-17 14:18:00,
2013-05-17 10:23:00,63.3,62.7,30.09,SSE,150,0.0,4.0,98,0.00,,,0.01,VWS V14.01,2013-05-17 14:23:00,
2013-05-17 10:28:00,63.4,62.8,30.09,ESE,121,0.0,5.0,98,0.00,,,0.01,VWS V14.01,2013-05-17 14:28:00,
2013-05-17 10:33:00,63.6,63.0,30.09,ESE,121,1.0,2.0,98,0.00,,,0.01,VWS V14.01,2013-05-17 14:33:00,
2013-05-17 10:39:00,63.5,62.9,30.09,East,98,2.0,5.0,98,0.00,,,0.01,VWS V14.01,2013-05-17 14:39:00,
2013-05-17 10:44:00,63.6,63.0,30.09,SE,138,1.0,4.0,98,0.00,,,0.01,VWS V14.01,2013-05-17 14:44:00,
2013-05-17 10:49:00,63.7,63.1,30.09,ESE,118,3.0,4.0,98,0.00,,,0.01,VWS V14.01,2013-05-17 14:49:00,
2013-05-17 10:54:00,63.9,63.3,30.09,ESE,117,0.0,2.0,98,0.00,,,0.01,VWS V14.01,2013-05-17 14:54:00,
2013-05-17 10:59:00,64.1,63.5,30.09,East,84,1.0,3.0,98,0.00,,,0.01,VWS V14.01,2013-05-17 14:59:00,
2013-05-17 11:04:00,64.3,63.7,30.10,ESE,103,3.0,3.0,98,0.00,,,0.01,VWS V14.01,2013-05-17 15:04:00,
2013-05-17 11:09:00,64.5,63.6,30.10,East,97,0.0,5.0,97,0.00,,,0.01,VWS V14.01,2013-05-17 15:09:00,
2013-05-17 11:14:00,64.7,63.8,30.10,ESE,108,0.0,4.0,97,0.00,,,0.01,VWS V14.01,2013-05-17 15:14:00,
2013-05-17 11:19:00,64.9,64.0,30.10,SE,136,0.0,4.0,97,0.00,,,0.01,VWS V14.01,2013-05-17 15:19:00,
2013-05-17 11:24:00,65.2,64.3,30.10,ESE,110,1.0,4.0,97,0.00,,,0.01,VWS V14.01,2013-05-17 15:24:00,
2013-05-17 11:29:00,65.3,64.1,30.10,ESE,115,0.0,6.0,96,0.00,,,0.01,VWS V14.01,2013-05-17 15:29:00,
2013-05-17 11:34:00,65.5,64.0,30.10,SE,132,1.0,7.0,95,0.00,,,0.01,VWS V14.01,2013-05-17 15:34:00,
2013-05-17 11:39:00,65.8,64.0,30.10,East,86,0.0,7.0,94,0.00,,,0.01,VWS V14.01,2013-05-17 15:39:00,
2013-05-17 11:44:00,66.3,64.5,30.10,East,86,0.0,2.0,94,0.00,,,0.01,VWS V14.01,2013-05-17 15:44:00,
2013-05-17 11:49:00,66.8,64.7,30.10,ESE,117,0.0,6.0,93,0.00,,,0.01,VWS V14.01,2013-05-17 15:49:00,
2013-05-17 11:54:00,67.2,64.8,30.10,ESE,105,0.0,4.0,92,0.00,,,0.01,VWS V14.01,2013-05-17 15:54:00,
2013-05-17 11:59:00,67.5,64.5,30.10,ENE,62,0.0,4.0,90,0.00,,,0.01,VWS V14.01,2013-05-17 15:59:00,
2013-05-17 12:04:00,67.8,64.8,30.10,ESE,113,1.0,4.0,90,0.00,,,0.01,VWS V14.01,2013-05-17 16:04:00,
2013-05-17 12:09:00,68.1,64.7,30.10,ESE,109,4.0,5.0,89,0.00,,,0.01,VWS V14.01,2013-05-17 16:09:00,
2013-05-17 12:14:00,68.7,65.3,30.10,SE,126,0.0,3.0,89,0.00,,,0.01,VWS V14.01,2013-05-17 16:14:00,
2013-05-17 12:19:00,69.3,65.6,30.09,East,84,0.0,3.0,88,0.00,,,0.01,VWS V14.01,2013-05-17 16:19:00,
2013-05-17 12:24:00,69.8,65.4,30.09,ENE,77,0.0,5.0,86,0.00,,,0.01,VWS V14.01,2013-05-17 16:24:00,
2013-05-17 12:29:00,70.4,66.0,30.09,ESE,119,0.0,7.0,86,0.00,,,0.01,VWS V14.01,2013-05-17 16:29:00,
2013-05-17 12:34:00,70.8,66.4,30.09,ESE,119,0.0,3.0,86,0.00,,,0.01,VWS V14.01,2013-05-17 16:34:00,
2013-05-17 12:39:00,71.1,66.0,30.10,East,83,0.0,3.0,84,0.00,,,0.01,VWS V14.01,2013-05-17 16:39:00,
2013-05-17 12:44:00,71.1,65.7,30.09,ESE,120,0.0,5.0,83,0.00,,,0.01,VWS V14.01,2013-05-17 16:44:00,
2013-05-17 12:49:00,71.3,66.2,30.09,ENE,78,2.0,5.0,84,0.00,,,0.01,VWS V14.01,2013-05-17 16:49:00,
2013-05-17 12:54:00,71.5,66.1,30.09,East,79,2.0,3.0,83,0.00,,,0.01,VWS V14.01,2013-05-17 16:54:00,
2013-05-17 12:59:00,71.9,66.5,30.09,NE,45,2.0,5.0,83,0.00,,,0.01,VWS V14.01,2013-05-17 16:59:00,
2013-05-17 13:04:00,72.3,66.5,30.09,East,90,4.0,4.0,82,0.00,,,0.01,VWS V14.01,2013-05-17 17:04:00,
2013-05-17 13:09:00,72.9,67.1,30.08,South,182,0.0,6.0,82,0.00,,,0.01,VWS V14.01,2013-05-17 17:09:00,
2013-05-17 13:14:00,73.3,67.5,30.09,ENE,74,2.0,4.0,82,0.00,,,0.01,VWS V14.01,2013-05-17 17:14:00,
2013-05-17 13:19:00,74.0,67.8,30.09,ESE,121,3.0,6.0,81,0.00,,,0.01,VWS V14.01,2013-05-17 17:19:00,
2013-05-17 13:24:00,74.5,67.6,30.09,SSW,198,2.0,4.0,79,0.00,,,0.01,VWS V14.01,2013-05-17 17:24:00,
2013-05-17 13:29:00,74.7,68.1,30.09,ESE,123,5.0,5.0,80,0.00,,,0.01,VWS V14.01,2013-05-17 17:29:00,
2013-05-17 13:34:00,74.9,67.9,30.08,ESE,114,1.0,4.0,79,0.00,,,0.01,VWS V14.01,2013-05-17 17:34:00,
2013-05-17 13:39:00,75.2,67.9,30.08,ESE,113,1.0,4.0,78,0.00,,,0.01,VWS V14.01,2013-05-17 17:39:00,
2013-05-17 13:44:00,75.5,67.8,30.08,SE,126,0.0,3.0,77,0.00,,,0.01,VWS V14.01,2013-05-17 17:44:00,
2013-05-17 13:49:00,75.7,68.0,30.08,East,90,2.0,3.0,77,0.00,,,0.01,VWS V14.01,2013-05-17 17:49:00,
2013-05-17 13:54:00,75.8,67.7,30.07,East,90,0.0,1.0,76,0.00,,,0.01,VWS V14.01,2013-05-17 17:54:00,
2013-05-17 13:59:00,76.2,68.1,30.07,East,90,0.0,1.0,76,0.00,,,0.01,VWS V14.01,2013-05-17 17:59:00,
2013-05-17 14:04:00,76.9,67.6,30.07,ESE,122,1.0,7.0,73,0.00,,,0.01,VWS V14.01,2013-05-17 18:04:00,
2013-05-17 14:09:00,77.5,69.0,30.07,SSE,157,0.0,7.0,75,0.00,,,0.01,VWS V14.01,2013-05-17 18:09:00,
2013-05-17 14:14:00,77.8,68.5,30.07,SSW,198,0.0,2.0,73,0.00,,,0.01,VWS V14.01,2013-05-17 18:14:00,
2013-05-17 14:19:00,78.1,67.9,30.07,South,177,0.0,2.0,71,0.00,,,0.01,VWS V14.01,2013-05-17 18:19:00,
2013-05-17 14:24:00,78.3,68.5,30.06,ESE,105,2.0,5.0,72,0.00,,,0.01,VWS V14.01,2013-05-17 18:24:00,
2013-05-17 14:29:00,78.3,67.7,30.06,ESE,112,0.0,5.0,70,0.00,,,0.01,VWS V14.01,2013-05-17 18:29:00,
2013-05-17 14:34:00,78.2,67.2,30.06,South,181,1.0,4.0,69,0.00,,,0.01,VWS V14.01,2013-05-17 18:34:00,
2013-05-17 14:39:00,78.5,67.5,30.06,ESE,116,0.0,4.0,69,0.00,,,0.01,VWS V14.01,2013-05-17 18:39:00,
2013-05-17 14:44:00,78.7,68.1,30.06,East,93,1.0,6.0,70,0.00,,,0.01,VWS V14.01,2013-05-17 18:44:00,
2013-05-17 14:49:00,78.9,68.3,30.06,SE,127,1.0,6.0,70,0.00,,,0.01,VWS V14.01,2013-05-17 18:49:00,
2013-05-17 14:54:00,79.1,67.6,30.06,SSW,199,0.0,2.0,68,0.00,,,0.01,VWS V14.01,2013-05-17 18:54:00,
2013-05-17 14:59:00,79.5,66.7,30.06,ESE,122,0.0,3.0,65,0.00,,,0.01,VWS V14.01,2013-05-17 18:59:00,
2013-05-17 15:04:00,79.5,66.7,30.06,SSW,195,0.0,4.0,65,0.00,,,0.01,VWS V14.01,2013-05-17 19:04:00,
2013-05-17 15:09:00,79.4,64.3,30.05,SE,126,5.0,5.0,60,0.00,,,0.01,VWS V14.01,2013-05-17 19:09:00,
2013-05-17 15:14:00,79.5,65.3,30.05,East,82,1.0,5.0,62,0.00,,,0.01,VWS V14.01,2013-05-17 19:14:00,
2013-05-17 15:19:00,79.3,65.2,30.05,ESE,116,1.0,5.0,62,0.00,,,0.01,VWS V14.01,2013-05-17 19:19:00,
2013-05-17 15:25:00,79.3,65.6,30.04,East,94,2.0,5.0,63,0.00,,,0.01,VWS V14.01,2013-05-17 19:25:00,
2013-05-17 15:30:00,79.2,64.1,30.04,NE,46,3.0,6.0,60,0.00,,,0.01,VWS V14.01,2013-05-17 19:30:00,
2013-05-17 15:35:00,79.0,63.9,30.04,SE,134,1.0,5.0,60,0.00,,,0.01,VWS V14.01,2013-05-17 19:35:00,
2013-05-17 15:40:00,79.0,64.4,30.04,NE,56,3.0,5.0,61,0.00,,,0.01,VWS V14.01,2013-05-17 19:40:00,
2013-05-17 15:45:00,78.9,64.3,30.04,ENE,65,1.0,6.0,61,0.00,,,0.01,VWS V14.01,2013-05-17 19:45:00,
2013-05-17 15:50:00,78.9,63.8,30.04,SE,143,3.0,6.0,60,0.00,,FEW030,0.01,VWS V14.01,2013-05-17 19:50:00,
2013-05-17 15:55:00,78.9,65.2,30.04,ESE,106,4.0,5.0,63,0.00,,FEW030,0.01,VWS V14.01,2013-05-17 19:55:00,
2013-05-17 16:00:00,78.7,64.1,30.04,ESE,113,1.0,5.0,61,0.00,,FEW030,0.01,VWS V14.01,2013-05-17 20:00:00,
2013-05-17 16:05:00,78.7,65.1,30.04,ESE,119,0.0,3.0,63,0.00,,FEW030,0.01,VWS V14.01,2013-05-17 20:05:00,
2013-05-17 16:10:00,78.7,65.1,30.04,SE,130,1.0,3.0,63,0.00,,FEW030,0.01,VWS V14.01,2013-05-17 20:10:00,
2013-05-17 16:15:00,78.7,65.1,30.04,SE,130,0.0,1.0,63,0.00,,FEW030,0.01,VWS V14.01,2013-05-17 20:15:00,
2013-05-17 16:20:00,79.0,65.8,30.03,SE,130,0.0,3.0,64,0.00,,FEW030,0.01,VWS V14.01,2013-05-17 20:20:00,
2013-05-17 16:25:00,79.1,65.4,30.03,ESE,107,1.0,5.0,63,0.00,,FEW030,0.01,VWS V14.01,2013-05-17 20:25:00,
2013-05-17 16:30:00,79.1,65.0,30.03,SE,138,0.0,6.0,62,0.00,,FEW030,0.01,VWS V14.01,2013-05-17 20:30:00,
2013-05-17 16:35:00,79.0,64.9,30.03,South,184,0.0,2.0,62,0.00,,FEW030,0.01,VWS V14.01,2013-05-17 20:35:00,
2013-05-17 16:40:00,78.9,64.3,30.03,ESE,110,1.0,4.0,61,0.00,,FEW030,0.01,VWS V14.01,2013-05-17 20:40:00,
2013-05-17 16:45:00,79.1,64.5,30.03,East,95,0.0,4.0,61,0.00,,FEW030,0.01,VWS V14.01,2013-05-17 20:45:00,
2013-05-17 16:50:00,79.2,64.6,30.03,SE,127,0.0,0.0,61,0.00,,FEW030,0.01,VWS V14.01,2013-05-17 20:50:00,
2013-05-17 16:55:00,79.4,64.8,30.02,South,186,0.0,4.0,61,0.00,,FEW030,0.01,VWS V14.01,2013-05-17 20:55:00,
2013-05-17 17:00:00,79.4,65.3,30.03,SSE,157,1.0,4.0,62,0.00,,FEW030,0.01,VWS V14.01,2013-05-17 21:00:00,
2013-05-17 17:05:00,79.5,65.3,30.03,ESE,117,3.0,9.0,62,0.00,,FEW030,0.01,VWS V14.01,2013-05-17 21:05:00,
2013-05-17 17:10:00,79.7,65.1,30.02,SE,126,3.0,3.0,61,0.00,,FEW030,0.01,VWS V14.01,2013-05-17 21:10:00,
2013-05-17 17:15:00,80.1,65.9,30.02,ESE,109,0.0,4.0,62,0.00,,FEW030,0.01,VWS V14.01,2013-05-17 21:15:00,
2013-05-17 17:20:00,80.3,66.1,30.02,ESE,121,1.0,1.0,62,0.00,,FEW030,0.01,VWS V14.01,2013-05-17 21:20:00,
2013-05-17 17:25:00,80.5,65.3,30.02,East,92,1.0,4.0,60,0.00,,FEW030,0.01,VWS V14.01,2013-05-17 21:25:00,
2013-05-17 17:30:00,80.3,64.7,30.03,ESE,115,2.0,3.0,59,0.00,,FEW030,0.01,VWS V14.01,2013-05-17 21:30:00,
2013-05-17 17:35:00,80.1,65.0,30.03,ESE,108,2.0,7.0,60,0.00,,FEW030,0.01,VWS V14.01,2013-05-17 21:35:00,
2013-05-17 17:40:00,80.0,64.4,30.03,ESE,111,2.0,3.0,59,0.00,,CLR,0.01,VWS V14.01,2013-05-17 21:40:00,
2013-05-17 17:45:00,80.0,64.4,30.03,East,82,2.0,4.0,59,0.00,,CLR,0.01,VWS V14.01,2013-05-17 21:45:00,
2013-05-17 17:50:00,79.9,64.3,30.03,ESE,103,0.0,2.0,59,0.00,,CLR,0.01,VWS V14.01,2013-05-17 21:50:00,
2013-05-17 17:55:00,79.8,64.2,30.03,ESE,118,5.0,7.0,59,0.00,,CLR,0.01,VWS V14.01,2013-05-17 21:55:00,
2013-05-17 18:00:00,79.8,63.7,30.03,East,85,2.0,2.0,58,0.00,,CLR,0.01,VWS V14.01,2013-05-17 22:00:00,
2013-05-17 18:05:00,80.0,64.4,30.03,ESE,121,2.0,11.0,59,0.00,,CLR,0.01,VWS V14.01,2013-05-17 22:05:00,
2013-05-17 18:10:00,80.0,64.4,30.03,ESE,113,4.0,4.0,59,0.00,,CLR,0.01,VWS V14.01,2013-05-17 22:10:00,
2013-05-17 18:15:00,79.7,63.6,30.02,South,183,1.0,4.0,58,0.00,,CLR,0.01,VWS V14.01,2013-05-17 22:15:00,
2013-05-17 18:20:00,79.4,63.8,30.02,ESE,121,4.0,5.0,59,0.00,,CLR,0.01,VWS V14.01,2013-05-17 22:20:00,
2013-05-17 18:25:00,79.2,63.7,30.02,East,89,2.0,5.0,59,0.00,,CLR,0.01,VWS V14.01,2013-05-17 22:25:00,
2013-05-17 18:30:00,79.1,64.0,30.03,East,86,2.0,2.0,60,0.00,,CLR,0.01,VWS V14.01,2013-05-17 22:30:00,
2013-05-17 18:35:00,79.0,63.9,30.02,South,178,1.0,5.0,60,0.00,,CLR,0.01,VWS V14.01,2013-05-17 22:35:00,
2013-05-17 18:40:00,79.1,64.5,30.03,ESE,117,3.0,3.0,61,0.00,,CLR,0.01,VWS V14.01,2013-05-17 22:40:00,
2013-05-17 18:45:00,79.4,64.3,30.03,ESE,119,2.0,4.0,60,0.00,,CLR,0.01,VWS V14.01,2013-05-17 22:45:00,
2013-05-17 18:50:00,79.6,64.5,30.03,East,83,0.0,1.0,60,0.00,,CLR,0.01,VWS V14.01,2013-05-17 22:50:00,
2013-05-17 18:55:00,79.6,64.0,30.03,East,95,1.0,9.0,59,0.00,,CLR,0.01,VWS V14.01,2013-05-17 22:55:00,
2013-05-17 19:00:00,79.6,64.0,30.02,ESE,117,0.0,0.0,59,0.00,,CLR,0.01,VWS V14.01,2013-05-17 23:00:00,
2013-05-17 19:05:00,79.5,63.4,30.03,East,96,2.0,7.0,58,0.00,,CLR,0.01,VWS V14.01,2013-05-17 23:05:00,
2013-05-17 19:10:00,79.5,63.9,30.03,SSE,162,0.0,1.0,59,0.00,,CLR,0.01,VWS V14.01,2013-05-17 23:10:00,
2013-05-17 19:15:00,79.3,63.7,30.04,ESE,122,1.0,4.0,59,0.00,,CLR,0.01,VWS V14.01,2013-05-17 23:15:00,
2013-05-17 19:20:00,79.1,63.6,30.03,ESE,111,0.0,0.0,59,0.00,,CLR,0.01,VWS V14.01,2013-05-17 23:20:00,
2013-05-17 19:25:00,78.9,63.4,30.04,East,100,3.0,3.0,59,0.00,,CLR,0.01,VWS V14.01,2013-05-17 23:25:00,
2013-05-17 19:30:00,78.7,63.2,30.04,ESE,111,0.0,1.0,59,0.00,,CLR,0.01,VWS V14.01,2013-05-17 23:30:00,
2013-05-17 19:35:00,78.3,63.3,30.04,ESE,111,0.0,1.0,60,0.00,,CLR,0.01,VWS V14.01,2013-05-17 23:35:00,
2013-05-17 19:40:00,78.0,63.9,30.05,SE,134,3.0,4.0,62,0.00,,CLR,0.01,VWS V14.01,2013-05-17 23:40:00,
2013-05-17 19:45:00,77.6,64.0,30.04,SE,135,0.0,4.0,63,0.00,,CLR,0.01,VWS V14.01,2013-05-17 23:45:00,
2013-05-17 19:50:00,77.3,64.6,30.04,SSE,159,0.0,1.0,65,0.00,,CLR,0.01,VWS V14.01,2013-05-17 23:50:00,
2013-05-17 19:55:00,76.9,65.1,30.05,SSE,159,0.0,1.0,67,0.00,,CLR,0.01,VWS V14.01,2013-05-17 23:55:00,
2013-05-17 20:00:00,76.5,64.7,30.05,SSE,150,0.0,1.0,67,0.00,,CLR,0.01,VWS V14.01,2013-05-18 00:00:00,
2013-05-17 20:05:00,76.2,64.9,30.05,South,180,0.0,2.0,68,0.00,,CLR,0.01,VWS V14.01,2013-05-18 00:05:00,
2013-05-17 20:10:00,75.9,64.6,30.04,South,182,0.0,0.0,68,0.00,,CLR,0.01,VWS V14.01,2013-05-18 00:10:00,
2013-05-17 20:15:00,75.6,64.7,30.05,South,182,0.0,1.0,69,0.00,,CLR,0.01,VWS V14.01,2013-05-18 00:15:00,
2013-05-17 20:20:00,75.3,64.4,30.06,South,182,0.0,0.0,69,0.00,,CLR,0.01,VWS V14.01,2013-05-18 00:20:00,
2013-05-17 20:26:00,74.9,64.5,30.06,South,182,0.0,1.0,70,0.00,,CLR,0.01,VWS V14.01,2013-05-18 00:26:00,
2013-05-17 20:31:00,74.6,64.2,30.06,South,177,0.0,0.0,70,0.00,,CLR,0.01,VWS V14.01,2013-05-18 00:31:00,
2013-05-17 20:36:00,74.2,63.8,30.06,South,176,0.0,1.0,70,0.00,,CLR,0.01,VWS V14.01,2013-05-18 00:36:00,
2013-05-17 20:41:00,74.0,63.6,30.07,South,179,0.0,1.0,70,0.00,,CLR,0.01,VWS V14.01,2013-05-18 00:41:00,
2013-05-17 20:46:00,73.8,63.8,30.07,SSE,164,1.0,1.0,71,0.00,,CLR,0.01,VWS V14.01,2013-05-18 00:46:00,
2013-05-17 20:51:00,73.5,63.9,30.08,SSW,200,2.0,3.0,72,0.00,,CLR,0.01,VWS V14.01,2013-05-18 00:51:00,
2013-05-17 20:56:00,72.5,62.6,30.08,WSW,250,2.0,11.0,71,0.00,,CLR,0.01,VWS V14.01,2013-05-18 00:56:00,
2013-05-17 21:01:00,71.5,62.4,30.08,WSW,241,3.0,3.0,73,0.00,,CLR,0.01,VWS V14.01,2013-05-18 01:01:00,
2013-05-17 21:06:00,71.0,61.5,30.08,WSW,242,2.0,3.0,72,0.00,,CLR,0.01,VWS V14.01,2013-05-18 01:06:00,
2013-05-17 21:11:00,70.4,61.3,30.08,WSW,242,0.0,1.0,73,0.00,,CLR,0.01,VWS V14.01,2013-05-18 01:11:00,
2013-05-17 21:16:00,70.1,61.0,30.08,WSW,242,0.0,3.0,73,0.00,,CLR,0.01,VWS V14.01,2013-05-18 01:16:00,
2013-05-17 21:21:00,69.9,61.2,30.08,WSW,242,0.0,1.0,74,0.00,,CLR,0.01,VWS V14.01,2013-05-18 01:21:00,
2013-05-17 21:26:00,69.7,61.4,30.08,WSW,248,0.0,3.0,75,0.00,,CLR,0.01,VWS V14.01,2013-05-18 01:26:00,
2013-05-17 21:31:00,69.5,61.6,30.08,WSW,248,0.0,0.0,76,0.00,,CLR,0.01,VWS V14.01,2013-05-18 01:31:00,
2013-05-17 21:36:00,69.4,61.9,30.08,WSW,254,2.0,3.0,77,0.00,,CLR,0.01,VWS V14.01,2013-05-18 01:36:00,
2013-05-17 21:41:00,69.2,62.1,30.08,WSW,258,0.0,2.0,78,0.00,,CLR,0.01,VWS V14.01,2013-05-18 01:41:00,
2013-05-17 21:46:00,69.0,61.9,30.08,WSW,258,0.0,2.0,78,0.00,,CLR,0.01,VWS V14.01,2013-05-18 01:46:00,
2013-05-17 21:51:00,68.8,62.0,30.08,WSW,258,0.0,0.0,79,0.00,,CLR,0.01,VWS V14.01,2013-05-18 01:51:00,
2013-05-17 21:56:00,68.7,61.9,30.08,WSW,258,0.0,1.0,79,0.00,,CLR,0.01,VWS V14.01,2013-05-18 01:56:00,
2013-05-17 22:01:00,68.5,61.7,30.08,WSW,258,0.0,1.0,79,0.00,,CLR,0.01,VWS V14.01,2013-05-18 02:01:00,
2013-05-17 22:06:00,68.3,61.9,30.09,WSW,258,0.0,1.0,80,0.00,,CLR,0.01,VWS V14.01,2013-05-18 02:06:00,
2013-05-17 22:11:00,68.1,61.7,30.09,WSW,258,0.0,0.0,80,0.00,,CLR,0.01,VWS V14.01,2013-05-18 02:11:00,
2013-05-17 22:16:00,68.0,62.0,30.09,WSW,258,0.0,1.0,81,0.00,,CLR,0.01,VWS V14.01,2013-05-18 02:16:00,
2013-05-17 22:21:00,67.8,61.8,30.09,WSW,258,0.0,0.0,81,0.00,,CLR,0.01,VWS V14.01,2013-05-18 02:21:00,
2013-05-17 22:26:00,67.7,61.7,30.09,WSW,258,1.0,1.0,81,0.00,,CLR,0.01,VWS V14.01,2013-05-18 02:26:00,
2013-05-17 22:31:00,67.7,61.7,30.09,WSW,258,0.0,0.0,81,0.00,,CLR,0.01,VWS V14.01,2013-05-18 02:31:00,
2013-05-17 22:36:00,67.6,61.6,30.09,WSW,258,0.0,0.0,81,0.00,,CLR,0.01,VWS V14.01,2013-05-18 02:36:00,
2013-05-17 22:41:00,67.5,61.8,30.09,WSW,258,0.0,0.0,82,0.00,,CLR,0.01,VWS V14.01,2013-05-18 02:41:00,
2013-05-17 22:46:00,67.5,61.8,30.09,WSW,258,0.0,1.0,82,0.00,,CLR,0.01,VWS V14.01,2013-05-18 02:46:00,
2013-05-17 22:51:00,67.4,62.1,30.08,WSW,258,0.0,0.0,83,0.00,,CLR,0.01,VWS V14.01,2013-05-18 02:51:00,
2013-05-17 22:56:00,67.4,62.1,30.08,WSW,258,0.0,1.0,83,0.00,,CLR,0.01,VWS V14.01,2013-05-18 02:56:00,
2013-05-17 23:01:00,67.4,62.1,30.08,WSW,258,0.0,0.0,83,0.00,,CLR,0.01,VWS V14.01,2013-05-18 03:01:00,
2013-05-17 23:06:00,67.3,62.0,30.08,WSW,258,0.0,0.0,83,0.00,,CLR,0.01,VWS V14.01,2013-05-18 03:06:00,
2013-05-17 23:11:00,67.1,61.8,30.08,WSW,258,0.0,0.0,83,0.00,,CLR,0.01,VWS V14.01,2013-05-18 03:11:00,
2013-05-17 23:16:00,67.0,62.0,30.08,WSW,258,0.0,0.0,84,0.00,,CLR,0.01,VWS V14.01,2013-05-18 03:16:00,
2013-05-17 23:21:00,66.8,61.8,30.08,WSW,258,0.0,0.0,84,0.00,,CLR,0.01,VWS V14.01,2013-05-18 03:21:00,
2013-05-17 23:26:00,66.6,61.6,30.08,WSW,258,0.0,0.0,84,0.00,,CLR,0.01,VWS V14.01,2013-05-18 03:26:00,
2013-05-17 23:31:00,66.4,61.8,30.08,WSW,258,0.0,0.0,85,0.00,,CLR,0.01,VWS V14.01,2013-05-18 03:31:00,
2013-05-17 23:36:00,66.3,61.7,30.07,WSW,258,0.0,0.0,85,0.00,,CLR,0.01,VWS V14.01,2013-05-18 03:36:00,
2013-05-17 23:41:00,66.2,61.6,30.07,WSW,258,0.0,0.0,85,0.00,,CLR,0.01,VWS V14.01,2013-05-18 03:41:00,
2013-05-17 23:46:00,66.0,61.4,30.07,WSW,258,0.0,0.0,85,0.00,,CLR,0.01,VWS V14.01,2013-05-18 03:46:00,
2013-05-17 23:51:00,65.9,61.6,30.07,WSW,258,0.0,0.0,86,0.00,,CLR,0.01,VWS V14.01,2013-05-18 03:51:00,
2013-05-17 23:56:00,65.7,61.4,30.07,WSW,258,0.0,0.0,86,0.00,,CLR,0.01,VWS V14.01,2013-05-18 03:56:00,